TimeEDT,TemperatureF,Dew PointF,Humidity,Sea Level PressureIn,VisibilityMPH,Wind Direction,Wind SpeedMPH,Gust SpeedMPH,PrecipitationIn,Events,Conditions,WindDirDegrees,DateUTC
12:54 AM,66.9,60.1,79,30.01,10.0,West,10.4,-,N/A,,Mostly Cloudy,260,2013-07-27 04:54:00
1:54 AM,66.9,59.0,76,30.00,10.0,West,10.4,-,N/A,,Clear,260,2013-07-27 05:54:00
2:54 AM,66.0,59.0,78,30.00,10.0,WSW,6.9,-,N/A,,Clear,240,2013-07-27 06:54:00
3:54 AM,64.0,57.9,80,30.01,10.0,SW,4.6,-,N/A,,Clear,230,2013-07-27 07:54:00
4:54 AM,66.0,59.0,78,30.01,10.0,West,8.1,-,N/A,,Clear,270,2013-07-27 08:54:00
5:54 AM,62.1,60.1,93,30.03,10.0,SW,8.1,-,N/A,,Clear,230,2013-07-27 09:54:00
6:54 AM,66.0,61.0,84,30.04,10.0,WSW,8.1,-,N/A,,Clear,250,2013-07-27 10:54:00
7:54 AM,68.0,62.1,81,30.04,10.0,WSW,6.9,-,N/A,,Clear,240,2013-07-27 11:54:00
8:54 AM,71.1,62.1,73,30.05,10.0,SW,8.1,-,N/A,,Clear,220,2013-07-27 12:54:00
9:54 AM,73.9,64.9,73,30.05,10.0,SSW,6.9,-,N/A,,Partly Cloudy,200,2013-07-27 13:54:00
10:54 AM,78.1,64.0,62,30.05,10.0,SW,5.8,-,N/A,,Partly Cloudy,230,2013-07-27 14:54:00
11:54 AM,79.0,64.9,62,30.05,10.0,South,9.2,-,N/A,,Partly Cloudy,180,2013-07-27 15:54:00
12:54 PM,80.1,62.1,54,30.04,10.0,SW,5.8,-,N/A,,Mostly Cloudy,220,2013-07-27 16:54:00
1:54 PM,82.0,60.1,47,30.02,10.0,WSW,9.2,-,N/A,,Mostly Cloudy,250,2013-07-27 17:54:00
2:54 PM,77.0,66.0,69,30.01,10.0,ESE,11.5,-,N/A,,Mostly Cloudy,120,2013-07-27 18:54:00
3:54 PM,75.9,66.0,71,30.01,10.0,ESE,11.5,-,N/A,,Mostly Cloudy,120,2013-07-27 19:54:00
4:54 PM,75.9,66.0,71,30.00,10.0,SE,10.4,-,N/A,,Overcast,130,2013-07-27 20:54:00
5:54 PM,80.1,64.0,58,29.99,10.0,SSW,13.8,-,N/A,,Mostly Cloudy,200,2013-07-27 21:54:00
6:54 PM,78.1,64.9,64,29.99,10.0,SSW,12.7,-,N/A,,Mostly Cloudy,200,2013-07-27 22:54:00
7:54 PM,75.0,61.0,62,30.01,10.0,SSW,12.7,-,N/A,,Mostly Cloudy,200,2013-07-27 23:54:00
8:54 PM,73.0,61.0,66,30.03,10.0,SSW,12.7,-,N/A,,Mostly Cloudy,200,2013-07-28 00:54:00
9:54 PM,71.1,64.0,78,30.02,10.0,SSW,10.4,-,N/A,,Mostly Cloudy,200,2013-07-28 01:54:00
10:54 PM,70.0,63.0,78,30.03,10.0,SSW,10.4,-,N/A,,Mostly Cloudy,200,2013-07-28 02:54:00
11:54 PM,68.0,64.0,87,30.02,10.0,South,5.8,-,N/A,,Scattered Clouds,190,2013-07-28 03:54:00